#datetime,meter,power
2022-01-16T00:00:00,02,0.99
2022-01-16T00:01:00,02,1.03
2022-01-16T00:02:00,02,1.03
2022-01-16T00:03:00,02,1.00
2022-01-16T00:04:00,02,1.07
2022-01-16T00:05:00,02,1.15
2022-01-16T00:06:00,02,1.14
2022-01-16T00:07:00,02,1.13
2022-01-16T00:08:00,02,1.13
2022-01-16T00:09:00,02,1.28
2022-01-16T00:10:00,02,1.24
2022-01-16T00:11:00,02,1.24
2022-01-16T00:12:00,02,1.23
2022-01-16T00:13:00,02,1.24
2022-01-16T00:14:00,02,2.18
2022-01-16T00:15:00,02,2.31
2022-01-16T00:16:00,02,2.33
2022-01-16T00:17:00,02,2.31
2022-01-16T00:18:00,02,2.31
2022-01-16T00:19:00,02,2.42
2022-01-16T00:20:00,02,2.42
2022-01-16T00:21:00,02,2.44
2022-01-16T00:22:00,02,2.40
2022-01-16T00:23:00,02,2.45
2022-01-16T00:24:00,02,2.48
2022-01-16T00:25:00,02,2.45
2022-01-16T00:26:00,02,2.34
2022-01-16T00:27:00,02,1.32
2022-01-16T00:28:00,02,1.34
2022-01-16T00:29:00,02,1.30
2022-01-16T00:30:00,02,1.30
2022-01-16T00:31:00,02,1.30
2022-01-16T00:32:00,02,1.23
2022-01-16T00:33:00,02,1.19
2022-01-16T00:34:00,02,1.22
2022-01-16T00:35:00,02,1.21
2022-01-16T00:36:00,02,1.22
2022-01-16T00:37:00,02,1.21
2022-01-16T00:38:00,02,1.18
2022-01-16T00:39:00,02,1.03
2022-01-16T00:40:00,02,1.06
2022-01-16T00:41:00,02,2.09
2022-01-16T00:42:00,02,2.19
2022-01-16T00:43:00,02,2.18
2022-01-16T00:44:00,02,2.23
2022-01-16T00:45:00,02,2.21
2022-01-16T00:46:00,02,2.14
2022-01-16T00:47:00,02,2.17
2022-01-16T00:48:00,02,2.35
2022-01-16T00:49:00,02,2.33
2022-01-16T00:50:00,02,2.34
2022-01-16T00:51:00,02,2.35
2022-01-16T00:52:00,02,2.35
2022-01-16T00:53:00,02,2.10
2022-01-16T00:54:00,02,1.32
2022-01-16T00:55:00,02,1.32
2022-01-16T00:56:00,02,1.30
2022-01-16T00:57:00,02,1.29
2022-01-16T00:58:00,02,1.26
2022-01-16T00:59:00,02,1.27
2022-01-16T01:00:00,02,1.22
2022-01-16T01:01:00,02,1.10
2022-01-16T01:02:00,02,1.09
2022-01-16T01:03:00,02,1.06
2022-01-16T01:04:00,02,1.18
2022-01-16T01:05:00,02,1.12
2022-01-16T01:06:00,02,1.11
2022-01-16T01:07:00,02,2.15
2022-01-16T01:08:00,02,2.21
2022-01-16T01:09:00,02,2.22
2022-01-16T01:10:00,02,2.27
2022-01-16T01:11:00,02,2.31
2022-01-16T01:12:00,02,2.30
2022-01-16T01:13:00,02,2.29
2022-01-16T01:14:00,02,2.32
2022-01-16T01:15:00,02,2.23
2022-01-16T01:16:00,02,2.23
2022-01-16T01:17:00,02,2.01
2022-01-16T01:18:00,02,1.27
2022-01-16T01:19:00,02,1.22
2022-01-16T01:20:00,02,1.24
2022-01-16T01:21:00,02,1.21
2022-01-16T01:22:00,02,1.22
2022-01-16T01:23:00,02,1.13
2022-01-16T01:24:00,02,1.09
2022-01-16T01:25:00,02,1.10
2022-01-16T01:26:00,02,1.13
2022-01-16T01:27:00,02,1.11
2022-01-16T01:28:00,02,1.39
2022-01-16T01:29:00,02,1.40
2022-01-16T01:30:00,02,1.42
2022-01-16T01:31:00,02,2.16
2022-01-16T01:32:00,02,2.31
2022-01-16T01:33:00,02,2.22
2022-01-16T01:34:00,02,2.15
2022-01-16T01:35:00,02,2.13
2022-01-16T01:36:00,02,2.14
2022-01-16T01:37:00,02,2.16
2022-01-16T01:38:00,02,2.18
2022-01-16T01:39:00,02,2.18
2022-01-16T01:40:00,02,2.17
2022-01-16T01:41:00,02,1.17
2022-01-16T01:42:00,02,1.18
2022-01-16T01:43:00,02,1.17
2022-01-16T01:44:00,02,1.11
2022-01-16T01:45:00,02,1.11
2022-01-16T01:46:00,02,1.12
2022-01-16T01:47:00,02,1.12
2022-01-16T01:48:00,02,1.12
2022-01-16T01:49:00,02,1.12
2022-01-16T01:50:00,02,1.12
2022-01-16T01:51:00,02,1.18
2022-01-16T01:52:00,02,1.02
2022-01-16T01:53:00,02,1.01
2022-01-16T01:54:00,02,2.04
2022-01-16T01:55:00,02,2.24
2022-01-16T01:56:00,02,2.19
2022-01-16T01:57:00,02,2.19
2022-01-16T01:58:00,02,2.17
2022-01-16T01:59:00,02,2.16
2022-01-16T02:00:00,02,2.17
2022-01-16T02:01:00,02,2.16
2022-01-16T02:02:00,02,2.17
2022-01-16T02:03:00,02,2.15
2022-01-16T02:04:00,02,2.15
2022-01-16T02:05:00,02,1.36
2022-01-16T02:06:00,02,1.60
2022-01-16T02:07:00,02,1.38
2022-01-16T02:08:00,02,1.36
2022-01-16T02:09:00,02,1.35
2022-01-16T02:10:00,02,1.33
2022-01-16T02:11:00,02,1.15
2022-01-16T02:12:00,02,1.11
2022-01-16T02:13:00,02,1.07
2022-01-16T02:14:00,02,1.05
2022-01-16T02:15:00,02,0.96
2022-01-16T02:16:00,02,0.92
2022-01-16T02:17:00,02,0.92
2022-01-16T02:18:00,02,0.91
2022-01-16T02:19:00,02,0.98
2022-01-16T02:20:00,02,0.97
2022-01-16T02:21:00,02,0.99
2022-01-16T02:22:00,02,0.96
2022-01-16T02:23:00,02,1.01
2022-01-16T02:24:00,02,0.99
2022-01-16T02:25:00,02,0.99
2022-01-16T02:26:00,02,0.70
2022-01-16T02:27:00,02,0.67
2022-01-16T02:28:00,02,0.63
2022-01-16T02:29:00,02,0.63
2022-01-16T02:30:00,02,0.64
2022-01-16T02:31:00,02,1.73
2022-01-16T02:32:00,02,1.73
2022-01-16T02:33:00,02,1.80
2022-01-16T02:34:00,02,1.79
2022-01-16T02:35:00,02,1.78
2022-01-16T02:36:00,02,1.79
2022-01-16T02:37:00,02,1.78
2022-01-16T02:38:00,02,1.76
2022-01-16T02:39:00,02,1.55
2022-01-16T02:40:00,02,0.69
2022-01-16T02:41:00,02,0.69
2022-01-16T02:42:00,02,0.60
2022-01-16T02:43:00,02,0.61
2022-01-16T02:44:00,02,0.61
2022-01-16T02:45:00,02,0.59
2022-01-16T02:46:00,02,0.59
2022-01-16T02:47:00,02,0.59
2022-01-16T02:48:00,02,0.59
2022-01-16T02:49:00,02,0.59
2022-01-16T02:50:00,02,0.60
2022-01-16T02:51:00,02,0.68
2022-01-16T02:52:00,02,0.66
2022-01-16T02:53:00,02,0.66
2022-01-16T02:54:00,02,0.64
2022-01-16T02:55:00,02,0.65
2022-01-16T02:56:00,02,1.74
2022-01-16T02:57:00,02,1.76
2022-01-16T02:58:00,02,1.75
2022-01-16T02:59:00,02,1.75
2022-01-16T03:00:00,02,1.76
2022-01-16T03:01:00,02,1.76
2022-01-16T03:02:00,02,1.75
2022-01-16T03:03:00,02,1.74
2022-01-16T03:04:00,02,1.69
2022-01-16T03:05:00,02,0.62
2022-01-16T03:06:00,02,0.61
2022-01-16T03:07:00,02,0.63
2022-01-16T03:08:00,02,0.74
2022-01-16T03:09:00,02,0.74
2022-01-16T03:10:00,02,0.74
2022-01-16T03:11:00,02,0.74
2022-01-16T03:12:00,02,0.72
2022-01-16T03:13:00,02,0.72
2022-01-16T03:14:00,02,0.73
2022-01-16T03:15:00,02,0.73
2022-01-16T03:16:00,02,0.72
2022-01-16T03:17:00,02,0.79
2022-01-16T03:18:00,02,1.73
2022-01-16T03:19:00,02,1.74
2022-01-16T03:20:00,02,1.73
2022-01-16T03:21:00,02,1.72
2022-01-16T03:22:00,02,1.71
2022-01-16T03:23:00,02,1.71
2022-01-16T03:24:00,02,1.71
2022-01-16T03:25:00,02,1.72
2022-01-16T03:26:00,02,1.67
2022-01-16T03:27:00,02,0.60
2022-01-16T03:28:00,02,0.57
2022-01-16T03:29:00,02,0.58
2022-01-16T03:30:00,02,0.54
2022-01-16T03:31:00,02,0.54
2022-01-16T03:32:00,02,0.54
2022-01-16T03:33:00,02,0.54
2022-01-16T03:34:00,02,0.54
2022-01-16T03:35:00,02,0.56
2022-01-16T03:36:00,02,0.55
2022-01-16T03:37:00,02,0.54
2022-01-16T03:38:00,02,1.64
2022-01-16T03:39:00,02,1.63
2022-01-16T03:40:00,02,1.63
2022-01-16T03:41:00,02,1.63
2022-01-16T03:42:00,02,1.69
